Simultaneous Nadir Overpasses (SNOs) Predictions

Prediction of SNOs between LANDSAT-8 and NOAA-19 Satellite Orbit:

Table of predicted SNOs for the next 14.0 days since TLE Epoch: 11/2/2024
Index Date (LANDSAT-8) Time (LANDSAT-8) Lat,Lon (LANDSAT-8) SZA (LANDSAT-8 ) Date (NOAA-19) Time (NOAA-19) Lat,Lon (NOAA-19) SZA (NOAA-19 ) Distance(km) Time Diff (sec)
1 11/02/2024 05:59:07 80.34, 120.86 96.88 11/02/2024 05:59:08 80.35, 121.00 96.90 2.63 1
2 11/04/2024 12:22:24 80.29, 24.50 97.48 11/04/2024 12:21:42 80.29, 24.57 97.47 1.50 42
3 11/04/2024 13:11:49 -80.35,-167.21 82.40 11/04/2024 13:12:36 -80.37,-167.07 82.36 3.00 47
4 11/06/2024 19:35:08 -80.31, 96.52 81.81 11/06/2024 19:35:10 -80.31, 96.47 81.81 0.77 2
5 11/09/2024 01:58:28 -80.27, 0.31 81.23 11/09/2024 01:57:43 -80.26, 0.19 81.26 2.57 45
6 11/09/2024 02:47:52 80.33, 168.59 98.90 11/09/2024 02:48:40 80.35, 168.71 98.94 2.54 48
7 11/11/2024 09:11:13 80.30, 72.45 99.47 11/11/2024 09:11:13 80.30, 72.40 99.46 1.08 0
8 11/13/2024 15:34:36 80.24, -23.94 99.96 11/13/2024 15:33:46 80.23, -24.09 99.92 3.10 50
9 11/13/2024 16:24:01 -80.32, 144.43 79.90 11/13/2024 16:24:38 -80.31, 144.29 79.91 3.06 37



Historial Predications of SNOs between LANDSAT-8 and NOAA-19
